{"data":{"norad_id":55164,"intl_designator":"2023-004AA","name":"ONEWEB-0623","alt_names":[],"object_type":"PAYLOAD","status":"ACTIVE","operator":null,"country":"UK","launch_date":"2023-01-10","launch_site_code":"AFETR","launch_vehicle":null,"mission":null,"orbit_class":"UNKNOWN","rcs_meters":null,"size_class":null,"mass_kg":null,"dimensions":null,"purposes":["comms"],"wikipedia_slug":null,"has_3d_model":false,"image_url":null,"decayed_at":null,"tle_current":{"epoch":"2026-05-25T00:13:39.813312Z","epoch_age_seconds":70394,"freshness":"FRESH","line1":"1 55164U 23004AA  26145.00948858 -.00000192  00000+0 -52757-3 0  9992","line2":"2 55164  87.9150  10.4889 0002522  93.0992 267.0428 13.17649027164534","mean_motion":13.17649027,"eccentricity":0.0002522,"inclination_deg":87.915,"raan_deg":10.4889,"arg_perigee_deg":93.0992,"mean_anomaly_deg":267.0428,"bstar":-0.00052757,"rev_number":16453,"period_min":109.2855510453,"perigee_km":1191.8035358175,"apogee_km":1195.6227770364,"semimajor_km":7571.850156427,"source":"CELESTRAK","updated_at":"2026-05-25T13:38:22.644673Z"}}}